When you browse on this site, cookies collect data to enhance your experience and personalize the content and advertising you see.
Visit our Privacy Policy to learn more. By continuing to use the site, you agree to this use of cookies and data.

Hourly Weather Chiquimula

Today, 14 August, Friday

Time Temperature Precipitation Wind Pressure Humidity
00:00 +22°C° 0 mm 1 mps 707 mmHg 97%
01:00 +22°C° 0 mm 1 mps 707 mmHg 97%
02:00 +22°C° 0 mm 1 mps 706 mmHg 98%
03:00 +21°C° 0 mm 1 mps 706 mmHg 98%
04:00 +21°C° 0 mm 1 mps 706 mmHg 98%
05:00 +21°C° 0 mm 1 mps 706 mmHg 97%
06:00 +21°C° 0 mm 1 mps 706 mmHg 97%
07:00 +23°C° 0 mm 1 mps 707 mmHg 92%
08:00 +25°C° 0 mm 1 mps 707 mmHg 87%
09:00 +26°C° 0 mm 1 mps 708 mmHg 81%
10:00 +28°C° 0 mm 1 mps 708 mmHg 75%
11:00 +29°C° 0 mm 2 mps 708 mmHg 69%
12:00 +31°C° 0 mm 2 mps 708 mmHg 63%
13:00 +31°C° 0 mm 2 mps 707 mmHg 63%
14:00 +31°C° 0 mm 2 mps 706 mmHg 63%
15:00 +31°C° 0 mm 2 mps 705 mmHg 63%
16:00 +29°C° 0.2 mm 2 mps 706 mmHg 71%
17:00 +28°C° 0.2 mm 2 mps 706 mmHg 79%
18:00 +26°C° 0.2 mm 2 mps 706 mmHg 87%
19:00 +25°C° 0.1 mm 1 mps 706 mmHg 89%
20:00 +24°C° 0.1 mm 1 mps 707 mmHg 91%
21:00 +23°C° 0.1 mm 1 mps 707 mmHg 94%
22:00 +23°C° 0.1 mm 1 mps 707 mmHg 94%
23:00 +23°C° 0.1 mm 1 mps 707 mmHg 95%

Tomorrow, 15 August, Saturday

Time Temperature Precipitation Wind Pressure Humidity
00:00 +23°C° 0.1 mm 1 mps 707 mmHg 95%
01:00 +23°C° 0 mm 1 mps 707 mmHg 96%
02:00 +22°C° 0 mm 1 mps 706 mmHg 97%
03:00 +22°C° 0 mm 1 mps 705 mmHg 98%
04:00 +22°C° 0 mm 1 mps 705 mmHg 98%
05:00 +22°C° 0 mm 1 mps 706 mmHg 98%
06:00 +22°C° 0 mm 1 mps 706 mmHg 98%
07:00 +23°C° 0 mm 1 mps 706 mmHg 93%
08:00 +25°C° 0 mm 1 mps 707 mmHg 89%
09:00 +26°C° 0 mm 1 mps 707 mmHg 84%
10:00 +28°C° 0.1 mm 2 mps 707 mmHg 77%
11:00 +29°C° 0.1 mm 2 mps 707 mmHg 70%
12:00 +31°C° 0.1 mm 2 mps 707 mmHg 63%
13:00 +31°C° 0.1 mm 2 mps 706 mmHg 63%
14:00 +31°C° 0.1 mm 3 mps 706 mmHg 63%
15:00 +31°C° 0.1 mm 3 mps 705 mmHg 62%
16:00 +30°C° 0.3 mm 2 mps 705 mmHg 70%
17:00 +28°C° 0.3 mm 2 mps 705 mmHg 79%
18:00 +26°C° 0.3 mm 2 mps 705 mmHg 87%
19:00 +25°C° 0.5 mm 1 mps 706 mmHg 90%
20:00 +24°C° 0.5 mm 1 mps 707 mmHg 93%
21:00 +23°C° 0.5 mm 1 mps 707 mmHg 96%
22:00 +23°C° 0.1 mm 1 mps 707 mmHg 96%
23:00 +23°C° 0.1 mm 1 mps 707 mmHg 96%

Day after tomorrow, 16 August, Sunday

Time Temperature Precipitation Wind Pressure Humidity
00:00 +22°C° 0.1 mm 1 mps 707 mmHg 96%
01:00 +22°C° 0 mm 1 mps 707 mmHg 95%
02:00 +22°C° 0 mm 1 mps 707 mmHg 95%
03:00 +19°C° 0 mm 0 mps 706 mmHg 95%
04:00 +19°C° 0 mm 0 mps 706 mmHg 94%
05:00 +19°C° 0 mm 0 mps 706 mmHg 94%
06:00 +19°C° 0 mm 0 mps 707 mmHg 94%
07:00 +23°C° 0 mm 1 mps 707 mmHg 89%
08:00 +25°C° 0 mm 1 mps 708 mmHg 84%
09:00 +26°C° 0 mm 1 mps 708 mmHg 80%
10:00 +28°C° 0.1 mm 1 mps 708 mmHg 76%
11:00 +29°C° 0.1 mm 1 mps 708 mmHg 73%
12:00 +30°C° 0.1 mm 1 mps 708 mmHg 70%
13:00 +29°C° 0.9 mm 1 mps 707 mmHg 75%
14:00 +26°C° 0.9 mm 0 mps 707 mmHg 80%
15:00 +26°C° 0.9 mm 0 mps 706 mmHg 85%
16:00 +24°C° 0.9 mm 0 mps 706 mmHg 87%
17:00 +23°C° 0.9 mm 0 mps 706 mmHg 90%
18:00 +22°C° 0.9 mm 0 mps 706 mmHg 92%
19:00 +22°C° 0.7 mm 0 mps 707 mmHg 93%
20:00 +22°C° 0.7 mm 0 mps 708 mmHg 94%
21:00 +23°C° 0.7 mm 1 mps 708 mmHg 95%
22:00 +23°C° 0.2 mm 1 mps 708 mmHg 96%
23:00 +23°C° 0.2 mm 1 mps 708 mmHg 96%

17 August, Monday

Time Temperature Precipitation Wind Pressure Humidity
00:00 +23°C° 0.2 mm 1 mps 708 mmHg 97%
01:00 +22°C° 0.2 mm 1 mps 708 mmHg 97%
02:00 +22°C° 0.2 mm 1 mps 708 mmHg 97%
03:00 +22°C° 0.2 mm 1 mps 707 mmHg 97%
04:00 +20°C° 0.1 mm 0 mps 707 mmHg 97%
05:00 +20°C° 0.1 mm 0 mps 707 mmHg 97%
06:00 +20°C° 0.1 mm 0 mps 707 mmHg 97%
07:00 +21°C° 0 mm 0 mps 708 mmHg 92%
08:00 +25°C° 0 mm 1 mps 708 mmHg 87%
09:00 +26°C° 0 mm 1 mps 709 mmHg 82%
10:00 +28°C° 0 mm 1 mps 709 mmHg 75%
11:00 +29°C° 0 mm 1 mps 709 mmHg 68%
12:00 +31°C° 0 mm 1 mps 708 mmHg 60%
13:00 +31°C° 0.3 mm 1 mps 708 mmHg 63%
14:00 +31°C° 0.3 mm 2 mps 707 mmHg 65%
15:00 +31°C° 0.3 mm 2 mps 706 mmHg 68%
16:00 +29°C° 1 mm 1 mps 707 mmHg 75%
17:00 +27°C° 1 mm 1 mps 707 mmHg 83%
18:00 +26°C° 1 mm 1 mps 707 mmHg 91%
19:00 +25°C° 0.7 mm 1 mps 707 mmHg 92%
20:00 +24°C° 0.7 mm 1 mps 708 mmHg 93%
21:00 +22°C° 0.7 mm 0 mps 708 mmHg 94%
22:00 +22°C° 0 mm 0 mps 708 mmHg 94%
23:00 +21°C° 0 mm 0 mps 708 mmHg 95%

18 August, Tuesday

Time Temperature Precipitation Wind Pressure Humidity
00:00 +21°C° 0 mm 0 mps 708 mmHg 95%
01:00 +21°C° 0 mm 0 mps 708 mmHg 95%
02:00 +21°C° 0 mm 0 mps 707 mmHg 96%
03:00 +21°C° 0 mm 0 mps 707 mmHg 96%
04:00 +20°C° 0 mm 0 mps 707 mmHg 96%
05:00 +20°C° 0 mm 0 mps 707 mmHg 96%
06:00 +19°C° 0 mm 0 mps 707 mmHg 96%
07:00 +21°C° 0 mm 0 mps 707 mmHg 90%
08:00 +25°C° 0 mm 1 mps 708 mmHg 84%
09:00 +27°C° 0 mm 1 mps 708 mmHg 79%
10:00 +28°C° 0 mm 1 mps 708 mmHg 72%
11:00 +30°C° 0 mm 1 mps 708 mmHg 65%
12:00 +31°C° 0 mm 1 mps 708 mmHg 58%
13:00 +31°C° 0 mm 1 mps 707 mmHg 58%
14:00 +31°C° 0 mm 2 mps 707 mmHg 58%
15:00 +31°C° 0 mm 2 mps 706 mmHg 57%
16:00 +30°C° 0.2 mm 1 mps 706 mmHg 65%
17:00 +28°C° 0.2 mm 1 mps 706 mmHg 73%
18:00 +26°C° 0.2 mm 1 mps 706 mmHg 81%
19:00 +25°C° 0.2 mm 1 mps 707 mmHg 83%
20:00 +24°C° 0.2 mm 1 mps 707 mmHg 86%
21:00 +21°C° 0.2 mm 0 mps 707 mmHg 88%
22:00 +21°C° 0.2 mm 0 mps 707 mmHg 90%
23:00 +21°C° 0.2 mm 0 mps 707 mmHg 92%

19 August, Wednesday

Time Temperature Precipitation Wind Pressure Humidity
00:00 +20°C° 0.2 mm 0 mps 707 mmHg 94%
01:00 +20°C° 0 mm 0 mps 707 mmHg 94%
02:00 +20°C° 0 mm 0 mps 707 mmHg 94%
03:00 +20°C° 0 mm 0 mps 706 mmHg 94%
04:00 +20°C° 0.1 mm 0 mps 706 mmHg 94%
05:00 +20°C° 0.1 mm 0 mps 707 mmHg 94%
06:00 +20°C° 0.1 mm 0 mps 707 mmHg 93%
07:00 +21°C° 0.2 mm 0 mps 707 mmHg 91%
08:00 +24°C° 0.2 mm 1 mps 707 mmHg 89%
09:00 +25°C° 0.2 mm 1 mps 707 mmHg 87%
10:00 +27°C° 0 mm 1 mps 707 mmHg 79%
11:00 +29°C° 0 mm 1 mps 707 mmHg 71%
12:00 +32°C° 0 mm 1 mps 707 mmHg 62%
13:00 +32°C° 0.3 mm 1 mps 707 mmHg 63%
14:00 +32°C° 0.3 mm 1 mps 706 mmHg 64%
15:00 +32°C° 0.3 mm 1 mps 705 mmHg 66%
16:00 +28°C° 1.5 mm 0 mps 705 mmHg 72%
17:00 +26°C° 1.5 mm 0 mps 705 mmHg 79%
18:00 +24°C° 1.5 mm 0 mps 705 mmHg 86%
19:00 +26°C° 1 mm 1 mps 706 mmHg 88%
20:00 +25°C° 1 mm 1 mps 706 mmHg 91%
21:00 +24°C° 1 mm 1 mps 707 mmHg 93%
22:00 +24°C° 0.7 mm 1 mps 706 mmHg 94%
23:00 +21°C° 0.7 mm 0 mps 706 mmHg 94%
Show more